| time (UTC) | temp F | wind direction | speed MPH | gust MPH | rain 1hr in | rain 24hr in | rain mn in | humidity % | barometer mb |
| 20260905174937 | 95 | 315 | 1.0 | 2.0 | 0.00 | 0.00 | 0.00 | 48 | |
| 20260905174432 | 95 | 316 | 1.0 | 2.0 | 0.00 | 0.00 | 0.00 | 47 | |
| 20260905173928 | 95 | 319 | 2.0 | 3.0 | 0.00 | 0.00 | 0.00 | 48 | |
| 20260905173424 | 95 | 343 | 1.0 | 2.0 | 0.00 | 0.00 | 0.00 | 49 | |
| 20260905172919 | 95 | 321 | 0.0 | 2.0 | 0.00 | 0.00 | 0.00 | 50 | |
| 20260905172417 | 95 | 316 | 1.0 | 1.0 | 0.00 | 0.00 | 0.00 | 48 | |
| 20260905171913 | 95 | 330 | 1.0 | 3.0 | 0.00 | 0.00 | 0.00 | 49 | |
| 20260905171409 | 94 | 324 | 2.0 | 5.0 | 0.00 | 0.00 | 0.00 | 49 | |
| 20260905170905 | 93 | 290 | 1.0 | 1.0 | 0.00 | 0.00 | 0.00 | 50 | |
| 20260905170401 | 93 | 341 | 1.0 | 2.0 | 0.00 | 0.00 | 0.00 | 50 | |
| 20260905165901 | 93 | 318 | 0.0 | 1.0 | 0.00 | 0.00 | 0.00 | 53 | |
| 20260905165355 | 92 | 311 | 1.0 | 1.0 | 0.00 | 0.00 | 0.00 | 53 | |
| 20260905164850 | 92 | 316 | 1.0 | 2.0 | 0.00 | 0.00 | 0.00 | 52 | |
| 20260905164345 | 92 | 310 | 1.0 | 1.0 | 0.00 | 0.00 | 0.00 | 53 | |
| 20260905163841 | 91 | 321 | 1.0 | 1.0 | 0.00 | 0.00 | 0.00 | 53 | |
| 20260905163337 | 91 | 310 | 1.0 | 1.0 | 0.00 | 0.00 | 0.00 | 54 | |
| 20260905162833 | 91 | 319 | 1.0 | 3.0 | 0.00 | 0.00 | 0.00 | 55 | |
| 20260905162332 | 91 | 346 | 1.0 | 2.0 | 0.00 | 0.00 | 0.00 | 55 | |
| 20260905161827 | 91 | 332 | 1.0 | 1.0 | 0.00 | 0.00 | 0.00 | 56 | |
| 20260905161327 | 90 | 3 | 0.0 | 2.0 | 0.00 | 0.00 | 0.00 | 57 | |
| 20260905160825 | 90 | 322 | 0.0 | 1.0 | 0.00 | 0.00 | 0.00 | 56 | |
| 20260905160320 | 90 | 314 | 0.0 | 1.0 | 0.00 | 0.00 | 0.00 | 56 | |
| 20260905155814 | 89 | 327 | 0.0 | 1.0 | 0.00 | 0.00 | 0.00 | 58 | |
| 20260905155313 | 89 | 314 | 0.0 | 1.0 | 0.00 | 0.00 | 0.00 | 58 | |
| 20260905154807 | 89 | 321 | 1.0 | 1.0 | 0.00 | 0.00 | 0.00 | 58 | |
| 20260905154303 | 89 | 326 | 0.0 | 1.0 | 0.00 | 0.00 | 0.00 | 59 | |
| 20260905153758 | 88 | 303 | 0.0 | 1.0 | 0.00 | 0.00 | 0.00 | 61 | |
| 20260905153254 | 87 | 317 | 0.0 | 0.0 | 0.00 | 0.00 | 0.00 | 61 | |
| 20260905152748 | 87 | 323 | 0.0 | 0.0 | 0.00 | 0.00 | 0.00 | 61 | |
| 20260905152243 | 87 | 320 | 0.0 | 0.0 | 0.00 | 0.00 | 0.00 | 62 | |
| 20260905151742 | 87 | 323 | 0.0 | 1.0 | 0.00 | 0.00 | 0.00 | 62 | |
| 20260905151239 | 86 | 327 | 0.0 | 0.0 | 0.00 | 0.00 | 0.00 | 62 | |
| 20260905150738 | 86 | 323 | 0.0 | 0.0 | 0.00 | 0.00 | 0.00 | 62 | |
| 20260905150238 | 86 | 325 | 0.0 | 1.0 | 0.00 | 0.00 | 0.00 | 63 | |
| 20260905145735 | 86 | 327 | 1.0 | 1.0 | 0.00 | 0.00 | 0.00 | 63 | |
| 20260905145230 | 86 | 323 | 0.0 | 0.0 | 0.00 | 0.00 | 0.00 | 63 | |
| 20260905144729 | 85 | 325 | 0.0 | 0.0 | 0.00 | 0.00 | 0.00 | 63 | |
| 20260905144225 | 85 | 324 | 0.0 | 0.0 | 0.00 | 0.00 | 0.00 | 63 | |
| 20260905143724 | 85 | 325 | 0.0 | 0.0 | 0.00 | 0.00 | 0.00 | 64 | |
| 20260905143224 | 84 | 329 | 0.0 | 0.0 | 0.00 | 0.00 | 0.00 | 65 | |
| 20260905142722 | 84 | 325 | 0.0 | 2.0 | 0.00 | 0.00 | 0.00 | 64 | |
| 20260905142217 | 84 | 324 | 2.0 | 3.0 | 0.00 | 0.00 | 0.00 | 65 | |
| 20260905141712 | 84 | 336 | 1.0 | 2.0 | 0.00 | 0.00 | 0.00 | 66 | |
| 20260905141208 | 84 | 328 | 1.0 | 2.0 | 0.00 | 0.00 | 0.00 | 64 | |
| 20260905140703 | 84 | 322 | 2.0 | 3.0 | 0.00 | 0.00 | 0.00 | 65 | |
| 20260905140157 | 83 | 331 | 0.0 | 1.0 | 0.00 | 0.00 | 0.00 | 65 | |
| 20260905135652 | 82 | 322 | 1.0 | 2.0 | 0.00 | 0.00 | 0.00 | 67 | |
| 20260905135148 | 82 | 329 | 1.0 | 1.0 | 0.00 | 0.00 | 0.00 | 67 | |
| 20260905134647 | 82 | 325 | 1.0 | 2.0 | 0.00 | 0.00 | 0.00 | 67 | |
| 20260905134146 | 81 | 325 | 0.0 | 1.0 | 0.00 | 0.00 | 0.00 | 67 | |
| 20260905133642 | 81 | 325 | 1.0 | 1.0 | 0.00 | 0.00 | 0.00 | 68 | |
| 20260905133142 | 80 | 327 | 0.0 | 1.0 | 0.00 | 0.00 | 0.00 | 69 | |
| 20260905132641 | 80 | 330 | 1.0 | 1.0 | 0.00 | 0.00 | 0.00 | 68 | |
| 20260905132136 | 79 | 323 | 1.0 | 1.0 | 0.00 | 0.00 | 0.00 | 69 | |
| 20260905131632 | 78 | 334 | 1.0 | 2.0 | 0.00 | 0.00 | 0.00 | 69 | |
| 20260905131126 | 78 | 329 | 0.0 | 1.0 | 0.00 | 0.00 | 0.00 | 70 | |
| 20260905130621 | 78 | 324 | 0.0 | 1.0 | 0.00 | 0.00 | 0.00 | 71 | |
| 20260905130121 | 78 | 332 | 1.0 | 1.0 | 0.00 | 0.00 | 0.00 | 71 | |
| 20260905125621 | 77 | 325 | 1.0 | 1.0 | 0.00 | 0.00 | 0.00 | 71 | |
| 20260905125117 | 77 | 333 | 1.0 | 1.0 | 0.00 | 0.00 | 0.00 | 71 | |
| 20260905124613 | 77 | 333 | 1.0 | 1.0 | 0.00 | 0.00 | 0.00 | 71 | |
| 20260905124109 | 77 | 332 | 1.0 | 1.0 | 0.00 | 0.00 | 0.00 | 71 | |
| 20260905123604 | 77 | 327 | 1.0 | 1.0 | 0.00 | 0.00 | 0.00 | 71 | |
| 20260905123101 | 77 | 326 | 1.0 | 1.0 | 0.00 | 0.00 | 0.00 | 71 | |
| 20260905122600 | 77 | 325 | 0.0 | 1.0 | 0.00 | 0.00 | 0.00 | 71 | |
| 20260905122055 | 77 | 326 | 0.0 | 1.0 | 0.00 | 0.00 | 0.00 | 71 | |
| 20260905121550 | 76 | 330 | 0.0 | 1.0 | 0.00 | 0.00 | 0.00 | 72 | |
| 20260905121045 | 76 | 324 | 1.0 | 1.0 | 0.00 | 0.00 | 0.00 | 72 | |
| 20260905120544 | 76 | 326 | 0.0 | 1.0 | 0.00 | 0.00 | 0.00 | 72 | |
| 20260905120039 | 76 | 330 | 0.0 | 1.0 | 0.00 | 0.00 | 0.00 | 73 | |
| 20260905115538 | 76 | 331 | 1.0 | 1.0 | 0.00 | 0.00 | 0.00 | 73 | |
| 20260905115033 | 76 | 328 | 0.0 | 1.0 | 0.00 | 0.00 | 0.00 | 73 | |
| 20260905114532 | 76 | 327 | 1.0 | 1.0 | 0.00 | 0.00 | 0.00 | 73 | |
| 20260905114032 | 76 | 326 | 0.0 | 0.0 | 0.00 | 0.00 | 0.00 | 73 | |
| 20260905113527 | 76 | 324 | 0.0 | 1.0 | 0.00 | 0.00 | 0.00 | 73 | |
| 20260905113022 | 76 | 325 | 0.0 | 1.0 | 0.00 | 0.00 | 0.00 | 72 | |
| 20260905112517 | 76 | 325 | 0.0 | 0.0 | 0.00 | 0.00 | 0.00 | 72 | |
| 20260905112013 | 77 | 327 | 0.0 | 1.0 | 0.00 | 0.00 | 0.00 | 71 | |
| 20260905111507 | 77 | 326 | 0.0 | 1.0 | 0.00 | 0.00 | 0.00 | 71 | |
| 20260905111002 | 77 | 325 | 0.0 | 1.0 | 0.00 | 0.00 | 0.00 | 71 | |
| 20260905110501 | 77 | 330 | 1.0 | 2.0 | 0.00 | 0.00 | 0.00 | 71 | |
| 20260905110001 | 77 | 327 | 1.0 | 3.0 | 0.00 | 0.00 | 0.00 | 71 | |
| 20260905105455 | 77 | 325 | 0.0 | 2.0 | 0.00 | 0.00 | 0.00 | 71 | |
| 20260905104954 | 77 | 326 | 1.0 | 2.0 | 0.00 | 0.00 | 0.00 | 71 | |
| 20260905104451 | 77 | 326 | 1.0 | 2.0 | 0.00 | 0.00 | 0.00 | 72 | |
| 20260905103945 | 77 | 325 | 1.0 | 2.0 | 0.00 | 0.00 | 0.00 | 71 | |
| 20260905103440 | 77 | 327 | 0.0 | 1.0 | 0.00 | 0.00 | 0.00 | 71 | |
| 20260905102937 | 77 | 327 | 1.0 | 1.0 | 0.00 | 0.00 | 0.00 | 71 | |
| 20260905102432 | 77 | 327 | 0.0 | 1.0 | 0.00 | 0.00 | 0.00 | 71 | |
| 20260905101927 | 77 | 329 | 0.0 | 1.0 | 0.00 | 0.00 | 0.00 | 71 | |
| 20260905101426 | 77 | 325 | 1.0 | 1.0 | 0.00 | 0.00 | 0.00 | 71 | |
| 20260905100921 | 77 | 338 | 1.0 | 1.0 | 0.00 | 0.00 | 0.00 | 71 | |
| 20260905100416 | 77 | 326 | 1.0 | 1.0 | 0.00 | 0.00 | 0.00 | 71 | |
| 20260905095916 | 78 | 325 | 0.0 | 1.0 | 0.00 | 0.00 | 0.00 | 71 | |
| 20260905095411 | 78 | 327 | 1.0 | 1.0 | 0.00 | 0.00 | 0.00 | 70 | |
| 20260905094911 | 78 | 327 | 1.0 | 1.0 | 0.00 | 0.00 | 0.00 | 71 | |
| 20260905094407 | 78 | 323 | 1.0 | 1.0 | 0.00 | 0.00 | 0.00 | 70 | |
| 20260905093905 | 77 | 327 | 0.0 | 0.0 | 0.00 | 0.00 | 0.00 | 70 | |
| 20260905093401 | 77 | 325 | 0.0 | 0.0 | 0.00 | 0.00 | 0.00 | 71 | |
| 20260905092856 | 77 | 325 | 0.0 | 0.0 | 0.00 | 0.00 | 0.00 | 72 | |
| 20260905092351 | 78 | 324 | 0.0 | 0.0 | 0.00 | 0.00 | 0.00 | 71 | |
| 20260905091846 | 78 | 327 | 0.0 | 0.0 | 0.00 | 0.00 | 0.00 | 70 | |
| 20260905091346 | 78 | 325 | 0.0 | 0.0 | 0.00 | 0.00 | 0.00 | 70 | |
| 20260905090845 | 78 | 325 | 0.0 | 0.0 | 0.00 | 0.00 | 0.00 | 70 | |
| 20260905090341 | 78 | 327 | 0.0 | 0.0 | 0.00 | 0.00 | 0.00 | 69 | |
| 20260905085840 | 78 | 325 | 0.0 | 0.0 | 0.00 | 0.00 | 0.00 | 69 | |
| 20260905085339 | 78 | 324 | 0.0 | 0.0 | 0.00 | 0.00 | 0.00 | 69 | |
| 20260905084836 | 78 | 325 | 0.0 | 0.0 | 0.00 | 0.00 | 0.00 | 69 | |
| 20260905084334 | 78 | 326 | 0.0 | 0.0 | 0.00 | 0.00 | 0.00 | 69 | |
| 20260905083829 | 78 | 326 | 0.0 | 0.0 | 0.00 | 0.00 | 0.00 | 69 | |
| 20260905083325 | 78 | 324 | 0.0 | 0.0 | 0.00 | 0.00 | 0.00 | 69 | |
| 20260905082820 | 78 | 325 | 0.0 | 0.0 | 0.00 | 0.00 | 0.00 | 70 | |
| 20260905082317 | 78 | 325 | 0.0 | 0.0 | 0.00 | 0.00 | 0.00 | 69 | |
| 20260905081812 | 78 | 326 | 0.0 | 0.0 | 0.00 | 0.00 | 0.00 | 69 | |
| 20260905081307 | 79 | 334 | 0.0 | 0.0 | 0.00 | 0.00 | 0.00 | 69 | |
| 20260905080806 | 78 | 326 | 0.0 | 0.0 | 0.00 | 0.00 | 0.00 | 69 | |
| 20260905080300 | 78 | 324 | 0.0 | 0.0 | 0.00 | 0.00 | 0.00 | 69 | |
| 20260905075758 | 78 | 324 | 0.0 | 0.0 | 0.00 | 0.00 | 0.00 | 69 | |
| 20260905075253 | 78 | 327 | 0.0 | 0.0 | 0.00 | 0.00 | 0.00 | 69 | |
| 20260905074752 | 78 | 324 | 0.0 | 0.0 | 0.00 | 0.00 | 0.00 | 70 | |
| 20260905074248 | 78 | 324 | 0.0 | 0.0 | 0.00 | 0.00 | 0.00 | 70 | |
| 20260905073743 | 79 | 324 | 0.0 | 0.0 | 0.00 | 0.00 | 0.00 | 69 | |
| 20260905073239 | 79 | 324 | 0.0 | 0.0 | 0.00 | 0.00 | 0.00 | 69 | |
| 20260905072738 | 79 | 324 | 0.0 | 0.0 | 0.00 | 0.00 | 0.00 | 68 | |
| 20260905072234 | 79 | 324 | 0.0 | 0.0 | 0.00 | 0.00 | 0.00 | 68 | |
| 20260905071730 | 79 | 326 | 0.0 | 0.0 | 0.00 | 0.00 | 0.00 | 68 | |
| 20260905071226 | 79 | 325 | 0.0 | 0.0 | 0.00 | 0.00 | 0.00 | 68 | |
| 20260905070720 | 79 | 325 | 0.0 | 0.0 | 0.00 | 0.00 | 0.00 | 68 | |
| 20260905070217 | 79 | 325 | 0.0 | 0.0 | 0.00 | 0.00 | 0.00 | 69 | |
| 20260905065715 | 79 | 325 | 0.0 | 0.0 | 0.00 | 0.00 | 0.00 | 69 | |
| 20260905065209 | 79 | 325 | 0.0 | 0.0 | 0.00 | 0.00 | 0.00 | 69 | |
| 20260905064705 | 79 | 325 | 0.0 | 0.0 | 0.00 | 0.00 | 0.00 | 69 | |
| 20260905064201 | 79 | 325 | 0.0 | 0.0 | 0.00 | 0.00 | 0.00 | 69 | |
| 20260905063659 | 80 | 325 | 0.0 | 0.0 | 0.00 | 0.00 | 0.00 | 68 | |
| 20260905063155 | 80 | 325 | 0.0 | 0.0 | 0.00 | 0.00 | 0.00 | 68 | |
| 20260905062651 | 80 | 325 | 0.0 | 0.0 | 0.00 | 0.00 | 0.00 | 67 | |
| 20260905062150 | 80 | 325 | 0.0 | 0.0 | 0.00 | 0.00 | 0.00 | 67 | |
| 20260905061644 | 79 | 325 | 0.0 | 0.0 | 0.00 | 0.00 | 0.00 | 68 | |
| 20260905061144 | 79 | 325 | 0.0 | 0.0 | 0.00 | 0.00 | 0.00 | 69 | |
| 20260905060639 | 78 | 325 | 0.0 | 0.0 | 0.00 | 0.00 | 0.00 | 70 | |
| 20260905060136 | 79 | 325 | 0.0 | 0.0 | 0.00 | 0.00 | 0.00 | 71 | |
| 20260905055634 | 79 | 325 | 0.0 | 0.0 | 0.00 | 0.00 | 0.00 | 70 | |
| 20260905055130 | 79 | 325 | 0.0 | 0.0 | 0.00 | 0.00 | 0.00 | 70 | |
| 20260905054626 | 79 | 325 | 0.0 | 0.0 | 0.00 | 0.00 | 0.00 | 69 | |
| 20260905054121 | 79 | 325 | 0.0 | 0.0 | 0.00 | 0.00 | 0.00 | 69 | |
| 20260905053621 | 79 | 325 | 0.0 | 0.0 | 0.00 | 0.00 | 0.00 | 70 | |
| 20260905053116 | 79 | 325 | 0.0 | 0.0 | 0.00 | 0.00 | 0.00 | 70 | |
| 20260905052615 | 79 | 325 | 0.0 | 0.0 | 0.00 | 0.00 | 0.00 | 70 | |
| 20260905052110 | 79 | 325 | 0.0 | 0.0 | 0.00 | 0.00 | 0.00 | 70 | |
| 20260905051606 | 80 | 325 | 0.0 | 0.0 | 0.00 | 0.00 | 0.00 | 69 | |
| 20260905051102 | 80 | 325 | 0.0 | 0.0 | 0.00 | 0.00 | 0.00 | 69 | |
| 20260905050558 | 80 | 325 | 0.0 | 0.0 | 0.00 | 0.00 | 0.00 | 68 | |
| 20260905050055 | 80 | 325 | 0.0 | 0.0 | 0.00 | 0.00 | 0.00 | 68 | |
| 20260905045548 | 80 | 325 | 0.0 | 0.0 | 0.00 | 0.00 | 0.00 | 68 | |
| 20260905045044 | 80 | 325 | 0.0 | 0.0 | 0.00 | 0.00 | 0.00 | 68 | |
| 20260905044544 | 81 | 325 | 0.0 | 0.0 | 0.00 | 0.00 | 0.00 | 67 | |
| 20260905044038 | 81 | 325 | 0.0 | 0.0 | 0.00 | 0.00 | 0.00 | 68 | |
| 20260905043538 | 81 | 325 | 0.0 | 0.0 | 0.00 | 0.00 | 0.00 | 67 | |
| 20260905043033 | 81 | 325 | 0.0 | 0.0 | 0.00 | 0.00 | 0.00 | 67 | |
| 20260905042531 | 82 | 325 | 0.0 | 0.0 | 0.00 | 0.00 | 0.00 | 67 | |
| 20260905042027 | 82 | 325 | 0.0 | 0.0 | 0.00 | 0.00 | 0.00 | 67 | |
| 20260905041523 | 82 | 325 | 0.0 | 0.0 | 0.00 | 0.00 | 0.00 | 66 | |
| 20260905041018 | 82 | 325 | 0.0 | 0.0 | 0.00 | 0.00 | 0.00 | 66 | |
| 20260905040517 | 82 | 325 | 0.0 | 0.0 | 0.00 | 0.00 | 0.00 | 66 | |
| 20260905040016 | 82 | 325 | 0.0 | 0.0 | 0.00 | 0.00 | 0.00 | 67 | |
| 20260905035511 | 82 | 325 | 0.0 | 0.0 | 0.00 | 0.00 | 0.00 | 66 | |
| 20260905035008 | 82 | 325 | 0.0 | 0.0 | 0.00 | 0.00 | 0.00 | 67 | |
| 20260905034503 | 82 | 325 | 0.0 | 0.0 | 0.00 | 0.00 | 0.00 | 67 | |
| 20260905034003 | 82 | 322 | 0.0 | 0.0 | 0.00 | 0.00 | 0.00 | 67 | |
| 20260905033457 | 82 | 322 | 0.0 | 0.0 | 0.00 | 0.00 | 0.00 | 68 | |
| 20260905032952 | 82 | 322 | 0.0 | 0.0 | 0.00 | 0.00 | 0.00 | 68 | |
| 20260905032448 | 82 | 322 | 0.0 | 0.0 | 0.00 | 0.00 | 0.00 | 68 | |
| 20260905031943 | 82 | 322 | 0.0 | 0.0 | 0.00 | 0.00 | 0.00 | 67 | |
| 20260905031438 | 82 | 322 | 0.0 | 0.0 | 0.00 | 0.00 | 0.00 | 67 | |
| 20260905030933 | 82 | 322 | 0.0 | 0.0 | 0.00 | 0.00 | 0.00 | 67 | |
| 20260905030429 | 82 | 322 | 0.0 | 0.0 | 0.00 | 0.00 | 0.00 | 66 | |
| 20260905025927 | 83 | 322 | 0.0 | 0.0 | 0.00 | 0.00 | 0.00 | 66 | |
| 20260905025423 | 83 | 322 | 0.0 | 0.0 | 0.00 | 0.00 | 0.00 | 66 | |
| 20260905024919 | 83 | 322 | 0.0 | 0.0 | 0.00 | 0.00 | 0.00 | 66 | |
| 20260905024414 | 83 | 322 | 0.0 | 0.0 | 0.00 | 0.00 | 0.00 | 65 | |
| 20260905023910 | 83 | 322 | 0.0 | 0.0 | 0.00 | 0.00 | 0.00 | 65 | |
| 20260905023405 | 83 | 322 | 0.0 | 0.0 | 0.00 | 0.00 | 0.00 | 66 | |
| 20260905022903 | 83 | 322 | 0.0 | 0.0 | 0.00 | 0.00 | 0.00 | 65 | |
| 20260905022359 | 84 | 322 | 0.0 | 0.0 | 0.00 | 0.00 | 0.00 | 65 | |
| 20260905021854 | 84 | 322 | 0.0 | 0.0 | 0.00 | 0.00 | 0.00 | 65 | |
| 20260905021349 | 84 | 322 | 0.0 | 0.0 | 0.00 | 0.00 | 0.00 | 65 | |
| 20260905020844 | 84 | 322 | 0.0 | 0.0 | 0.00 | 0.00 | 0.00 | 65 | |
| 20260905020338 | 84 | 322 | 0.0 | 0.0 | 0.00 | 0.00 | 0.00 | 65 | |
| 20260905015838 | 84 | 322 | 0.0 | 0.0 | 0.00 | 0.00 | 0.00 | 64 | |
| 20260905015337 | 84 | 322 | 0.0 | 0.0 | 0.00 | 0.00 | 0.00 | 64 | |
| 20260905014831 | 84 | 322 | 0.0 | 0.0 | 0.00 | 0.00 | 0.00 | 64 | |
| 20260905014327 | 85 | 322 | 0.0 | 0.0 | 0.00 | 0.00 | 0.00 | 64 | |
| 20260905013821 | 85 | 322 | 0.0 | 0.0 | 0.00 | 0.00 | 0.00 | 63 | |
| 20260905013318 | 85 | 322 | 0.0 | 0.0 | 0.00 | 0.00 | 0.00 | 62 | |
| 20260905012813 | 86 | 322 | 0.0 | 0.0 | 0.00 | 0.00 | 0.00 | 62 | |
| 20260905012308 | 86 | 322 | 0.0 | 0.0 | 0.00 | 0.00 | 0.00 | 61 | |
| 20260905011805 | 86 | 322 | 0.0 | 0.0 | 0.00 | 0.00 | 0.00 | 60 | |
| 20260905011301 | 87 | 322 | 0.0 | 0.0 | 0.00 | 0.00 | 0.00 | 59 | |
| 20260905010801 | 87 | 321 | 0.0 | 0.0 | 0.00 | 0.00 | 0.00 | 59 | |
| 20260905010256 | 87 | 321 | 0.0 | 0.0 | 0.00 | 0.00 | 0.00 | 58 | |
| 20260905005753 | 88 | 321 | 0.0 | 0.0 | 0.00 | 0.00 | 0.00 | 57 | |
| 20260905005253 | 88 | 321 | 0.0 | 0.0 | 0.00 | 0.00 | 0.00 | 56 | |
| 20260905004753 | 89 | 321 | 0.0 | 0.0 | 0.00 | 0.00 | 0.00 | 56 | |
| 20260905004247 | 90 | 321 | 0.0 | 0.0 | 0.00 | 0.00 | 0.00 | 55 | |
| 20260905003742 | 90 | 321 | 0.0 | 0.0 | 0.00 | 0.00 | 0.00 | 53 | |
| 20260905003238 | 91 | 325 | 0.0 | 0.0 | 0.00 | 0.00 | 0.00 | 53 | |
| 20260905002733 | 92 | 324 | 0.0 | 0.0 | 0.00 | 0.00 | 0.00 | 51 | |
| 20260905002228 | 93 | 321 | 0.0 | 1.0 | 0.00 | 0.00 | 0.00 | 51 | |
| 20260905001723 | 93 | 321 | 0.0 | 1.0 | 0.00 | 0.00 | 0.00 | 49 | |
| 20260905001222 | 93 | 343 | 1.0 | 2.0 | 0.00 | 0.00 | 0.00 | 49 | |
| 20260905000718 | 94 | 321 | 0.0 | 1.0 | 0.00 | 0.00 | 0.00 | 48 | |
| 20260905000213 | 93 | 325 | 2.0 | 2.0 | 0.00 | 0.00 | 0.00 | 48 | |
| 20260904235708 | 93 | 324 | 0.0 | 2.0 | 0.00 | 0.00 | 0.00 | 48 | |
| 20260904235203 | 94 | 341 | 2.0 | 2.0 | 0.00 | 0.00 | 0.00 | 48 | |
| 20260904234657 | 94 | 325 | 0.0 | 1.0 | 0.00 | 0.00 | 0.00 | 47 | |
| 20260904234153 | 94 | 324 | 0.0 | 1.0 | 0.00 | 0.00 | 0.00 | 48 | |
| 20260904233649 | 94 | 332 | 1.0 | 2.0 | 0.00 | 0.00 | 0.00 | 48 | |
| 20260904233144 | 94 | 329 | 3.0 | 3.0 | 0.00 | 0.00 | 0.00 | 47 | |
| 20260904232641 | 94 | 333 | 1.0 | 3.0 | 0.00 | 0.00 | 0.00 | 47 | |
| 20260904232137 | 94 | 11 | 2.0 | 5.0 | 0.00 | 0.00 | 0.00 | 48 | |
| 20260904231632 | 94 | 328 | 1.0 | 1.0 | 0.00 | 0.00 | 0.00 | 48 | |
| 20260904231127 | 94 | 332 | 1.0 | 5.0 | 0.00 | 0.00 | 0.00 | 47 | |
| 20260904230626 | 94 | 298 | 1.0 | 1.0 | 0.00 | 0.00 | 0.00 | 48 | |
| 20260904230122 | 94 | 327 | 1.0 | 2.0 | 0.00 | 0.00 | 0.00 | 48 | |
| 20260904225619 | 95 | 325 | 1.0 | 5.0 | 0.00 | 0.00 | 0.00 | 48 | |
| 20260904225115 | 95 | 351 | 1.0 | 2.0 | 0.00 | 0.00 | 0.00 | 48 | |
| 20260904224609 | 94 | 347 | 1.0 | 3.0 | 0.00 | 0.00 | 0.00 | 48 | |
| 20260904224104 | 95 | 321 | 1.0 | 1.0 | 0.00 | 0.00 | 0.00 | 48 | |
| 20260904223603 | 95 | 341 | 2.0 | 3.0 | 0.00 | 0.00 | 0.00 | 47 | |
| 20260904223059 | 95 | 326 | 1.0 | 5.0 | 0.00 | 0.00 | 0.00 | 47 | |
| 20260904222555 | 95 | 319 | 1.0 | 2.0 | 0.00 | 0.00 | 0.00 | 48 | |
| 20260904222050 | 95 | 328 | 1.0 | 2.0 | 0.00 | 0.00 | 0.00 | 47 | |
| 20260904221550 | 95 | 337 | 1.0 | 2.0 | 0.00 | 0.00 | 0.00 | 48 | |
| 20260904221045 | 95 | 327 | 2.0 | 6.0 | 0.00 | 0.00 | 0.00 | 48 | |
| 20260904220544 | 95 | 331 | 1.0 | 2.0 | 0.00 | 0.00 | 0.00 | 48 | |
| 20260904220040 | 95 | 338 | 1.0 | 3.0 | 0.00 | 0.00 | 0.00 | 48 | |
| 20260904215534 | 95 | 323 | 2.0 | 2.0 | 0.00 | 0.00 | 0.00 | 48 | |
| 20260904215030 | 95 | 325 | 0.0 | 3.0 | 0.00 | 0.00 | 0.00 | 49 | |
| 20260904214525 | 95 | 334 | 2.0 | 5.0 | 0.00 | 0.00 | 0.00 | 49 | |
| 20260904214021 | 95 | 330 | 1.0 | 6.0 | 0.00 | 0.00 | 0.00 | 47 | |
| 20260904213518 | 95 | 341 | 3.0 | 3.0 | 0.00 | 0.00 | 0.00 | 47 | |
| 20260904213016 | 95 | 344 | 1.0 | 2.0 | 0.00 | 0.00 | 0.00 | 48 | |
| 20260904212515 | 95 | 304 | 0.0 | 1.0 | 0.00 | 0.00 | 0.00 | 48 | |
| 20260904212010 | 95 | 321 | 1.0 | 3.0 | 0.00 | 0.00 | 0.00 | 47 | |
| 20260904211504 | 95 | 325 | 0.0 | 2.0 | 0.00 | 0.00 | 0.00 | 47 | |
| 20260904211000 | 95 | 5 | 2.0 | 3.0 | 0.00 | 0.00 | 0.00 | 48 | |
| 20260904210459 | 95 | 319 | 2.0 | 5.0 | 0.00 | 0.00 | 0.00 | 48 | |
| 20260904205954 | 95 | 329 | 2.0 | 3.0 | 0.00 | 0.00 | 0.00 | 47 | |
| 20260904205450 | 95 | 335 | 3.0 | 3.0 | 0.00 | 0.00 | 0.00 | 47 | |
| 20260904204947 | 95 | 326 | 2.0 | 3.0 | 0.00 | 0.00 | 0.00 | 49 | |
| 20260904204443 | 94 | 321 | 1.0 | 1.0 | 0.00 | 0.00 | 0.00 | 49 | |
| 20260904203938 | 94 | 332 | 0.0 | 1.0 | 0.00 | 0.00 | 0.00 | 48 | |
| 20260904203435 | 95 | 323 | 2.0 | 2.0 | 0.00 | 0.00 | 0.00 | 49 | |
| 20260904202930 | 94 | 320 | 2.0 | 3.0 | 0.00 | 0.00 | 0.00 | 49 | |
| 20260904202426 | 95 | 324 | 0.0 | 5.0 | 0.00 | 0.00 | 0.00 | 49 | |
| 20260904201922 | 95 | 325 | 3.0 | 6.0 | 0.00 | 0.00 | 0.00 | 48 | |
| 20260904201417 | 95 | 329 | 1.0 | 3.0 | 0.00 | 0.00 | 0.00 | 48 | |
| 20260904200913 | 95 | 328 | 1.0 | 3.0 | 0.00 | 0.00 | 0.00 | 49 | |
| 20260904200411 | 94 | 338 | 2.0 | 6.0 | 0.00 | 0.00 | 0.00 | 49 | |
| 20260904195906 | 94 | 319 | 0.0 | 2.0 | 0.00 | 0.00 | 0.00 | 50 | |
| 20260904195404 | 95 | 317 | 0.0 | 2.0 | 0.00 | 0.00 | 0.00 | 50 | |
| 20260904194859 | 94 | 312 | 1.0 | 2.0 | 0.00 | 0.00 | 0.00 | 50 | |
| 20260904194358 | 94 | 335 | 2.0 | 6.0 | 0.00 | 0.00 | 0.00 | 49 | |
| 20260904193854 | 94 | 323 | 2.0 | 3.0 | 0.00 | 0.00 | 0.00 | 49 | |
| 20260904193349 | 94 | 354 | 2.0 | 2.0 | 0.00 | 0.00 | 0.00 | 49 | |
| 20260904192844 | 94 | 343 | 2.0 | 2.0 | 0.00 | 0.00 | 0.00 | 50 | |
| 20260904192339 | 94 | 359 | 4.0 | 8.0 | 0.00 | 0.00 | 0.00 | 50 | |
| 20260904191836 | 94 | 326 | 1.0 | 3.0 | 0.00 | 0.00 | 0.00 | 51 | |
| 20260904191332 | 94 | 29 | 3.0 | 5.0 | 0.00 | 0.00 | 0.00 | 50 | |
| 20260904190828 | 94 | 325 | 1.0 | 3.0 | 0.00 | 0.00 | 0.00 | 51 | |
| 20260904190324 | 93 | 346 | 2.0 | 5.0 | 0.00 | 0.00 | 0.00 | 51 | |
| 20260904185820 | 93 | 322 | 0.0 | 2.0 | 0.00 | 0.00 | 0.00 | 53 | |
| 20260904185316 | 94 | 322 | 4.0 | 6.0 | 0.00 | 0.00 | 0.00 | 51 | |
| 20260904184815 | 94 | 337 | 2.0 | 3.0 | 0.00 | 0.00 | 0.00 | 49 | |
| 20260904184310 | 93 | 340 | 2.0 | 6.0 | 0.00 | 0.00 | 0.00 | 51 | |
| 20260904183805 | 93 | 322 | 1.0 | 3.0 | 0.00 | 0.00 | 0.00 | 51 | |
| 20260904183300 | 93 | 30 | 2.0 | 3.0 | 0.00 | 0.00 | 0.00 | 51 | |
| 20260904182755 | 93 | 320 | 1.0 | 2.0 | 0.00 | 0.00 | 0.00 | 51 | |
| 20260904182250 | 92 | 27 | 1.0 | 2.0 | 0.00 | 0.00 | 0.00 | 52 | |
| 20260904181746 | 92 | 304 | 1.0 | 2.0 | 0.00 | 0.00 | 0.00 | 52 | |
| 20260904181246 | 92 | 322 | 1.0 | 1.0 | 0.00 | 0.00 | 0.00 | 54 | |
| 20260904180741 | 92 | 331 | 2.0 | 5.0 | 0.00 | 0.00 | 0.00 | 52 | |
| 20260904180236 | 92 | 328 | 0.0 | 1.0 | 0.00 | 0.00 | 0.00 | 53 | |
| 20260904175735 | 92 | 330 | 2.0 | 6.0 | 0.00 | 0.00 | 0.00 | 53 | |
| 20260904175234 | 92 | 329 | 1.0 | 5.0 | 0.00 | 0.00 | 0.00 | 55 |